Tracking 22989 objects as of 8-May-2021
HD Live streaming from Space Station
objects crossing your sky now

THORAD AGENA D DEB

Track THORAD AGENA D DEB now!
10-day predictions


NORAD ID: 14467
Int'l Code: 1970-025NT
Perigee: 1,031.5 km
Apogee: 1,033.8 km
Inclination: 100.1 °
Period: 105.7 minutes
Semi major axis: 7403 km
RCS: 0.007 m2 (small)
Launch date: April 8, 1970
Source: United States (US)
Launch site: AIR FORCE WESTERN TEST RANGE (AFWTR)

Note: This is SATELLITE DEBRIS
aabbcc
Your satellite tracking list
Your tracking list is empty




NASA's NSSDC Master Catalog

Two Line Element Set (TLE):
1 14467U 70025NT  21127.63987362  .00000123  00000-0  21902-3 0  9996
2 14467 100.0656 273.2703 0001577  42.8471  21.7693 13.62804772907455
Source of the keplerian elements: AFSPC